Morgantown, WV

6:14 PM EST on February 12, 2016 (GMT -0500)
Morgantown Municipal-Hart

Weather History for KMGW - January, 2006

Change the Weather History Date:

Friday, January 13, 2006

  Actual Average Record
Temperature  
Mean Temperature 58 °F 31 °F  
Max Temperature 69 °F 39 °F 72 °F (2005)
Min Temperature 46 °F 24 °F -12 °F (1977)
Degree Days  
Heating Degree Days 8 34  
Month to date heating degree days 439  
Since 1 July heating degree days 2423  
Cooling Degree Days 0 0  
Month to date cooling degree days 0  
Year to date cooling degree days 0  
Growing Degree Days 8 (Base 50)    
Moisture  
Dew Point 36 °F    
Average Humidity 55    
Maximum Humidity 96    
Minimum Humidity 18    
Precipitation  
Precipitation 0.54 in 0.09 in 0.80 in (1975)
Month to date precipitation 1.17  
Year to date precipitation 1.17  
Sea Level Pressure  
Sea Level Pressure 29.60 in    
Wind  
Wind Speed 7 mph (SSW)    
Max Wind Speed 16 mph    
Max Gust Speed 21 mph    
Visibility 8 miles    
Events Rain    
T = Trace of Precipitation, MM = Missing Value Source: NWS Daily Summary

Daily Weather History Graph

Daily Weather History Graph

Search for Another Location

Airport or City:

Trip Planner

Search our weather history database for the weather conditions in past years. The results will help you decide how hot, cold, wet, or windy it might be!

Date:

Astronomy

Jan. 13, 2006 Rise Set
Actual Time 7:39 AM EST 5:17 PM EST
Civil Twilight 7:09 AM EST 5:47 PM EST
Nautical Twilight 6:36 AM EST 6:20 PM EST
Astronomical Twilight 6:04 AM EST 6:53 PM EST
Moon 4:27 PM EST (1/13) 7:31 AM EST (1/13)
Length of Visible Light 10h 37m
Length of Day
9h 38m
Full, 100% of the Moon is Illuminated
Jan 13
Full
Jan 14
Full
Jan 22
Last Quarter
Jan 29
New
Feb 5
First Quarter

Hourly Weather History & Observations

Time (EST) Temp. Windchill Dew Point Humidity Pressure Visibility Wind Dir Wind Speed Gust Speed Precip Events Conditions
12:53 AM 46.0 °F 43.9 °F 25.0 °F 44% 29.93 in 10.0 mi SSW 4.6 mph - N/A   Clear
1:53 AM 46.9 °F - 23.0 °F 39% 29.93 in 10.0 mi SSW 5.8 mph - N/A   Clear
2:53 AM 48.9 °F - 21.9 °F 35% 29.93 in 10.0 mi SSW 4.6 mph - N/A   Clear
3:53 AM 50.0 °F - 23.0 °F 35% 29.91 in 10.0 mi South 5.8 mph - N/A   Clear
4:53 AM 51.1 °F - 25.0 °F 36% 29.90 in 10.0 mi South 4.6 mph - N/A   Mostly Cloudy
5:53 AM 52.0 °F - 27.0 °F 38% 29.88 in 10.0 mi South 6.9 mph - N/A   Overcast
6:53 AM 53.1 °F - 28.0 °F 38% 29.88 in 10.0 mi South 4.6 mph - N/A   Mostly Cloudy
7:53 AM 51.1 °F - 27.0 °F 39% 29.85 in 10.0 mi SSE 4.6 mph - N/A   Mostly Cloudy
8:53 AM 53.1 °F - 28.9 °F 40% 29.83 in 10.0 mi SSE 5.8 mph - N/A   Mostly Cloudy
9:53 AM 61.0 °F - 28.0 °F 29% 29.82 in 10.0 mi Variable 6.9 mph - N/A   Partly Cloudy
10:53 AM 64.9 °F - 25.0 °F 22% 29.78 in 10.0 mi SSE 8.1 mph - N/A   Clear
11:53 AM 66.9 °F - 28.0 °F 23% 29.72 in 10.0 mi SSE 12.7 mph - N/A   Clear
12:53 PM 69.1 °F - 26.1 °F 20% 29.63 in 10.0 mi South 16.1 mph 20.7 mph N/A   Clear
1:53 PM 69.1 °F - 24.1 °F 18% 29.59 in 10.0 mi SSW 11.5 mph 20.7 mph N/A   Clear
2:53 PM 68.0 °F - 33.1 °F 27% 29.56 in 10.0 mi South 13.8 mph 20.7 mph N/A   Clear
3:53 PM 66.9 °F - 32.0 °F 27% 29.55 in 10.0 mi South 9.2 mph - N/A   Clear
4:53 PM 64.9 °F - 33.1 °F 31% 29.54 in 10.0 mi SW 8.1 mph - N/A   Overcast
5:53 PM 61.0 °F - 39.0 °F 44% 29.53 in 10.0 mi South 10.4 mph - N/A   Mostly Cloudy
6:53 PM 59.0 °F - 39.9 °F 49% 29.49 in 10.0 mi SSE 9.2 mph - N/A   Mostly Cloudy
7:53 PM 60.1 °F - 43.0 °F 53% 29.43 in 10.0 mi ESE 6.9 mph - 0.00 in Rain Light Rain
8:53 PM 57.0 °F - 46.0 °F 67% 29.38 in 10.0 mi Variable 3.5 mph - 0.02 in Rain Light Rain
9:53 PM 51.1 °F - 48.9 °F 92% 29.35 in 3.0 mi NNW 5.8 mph - 0.10 in Rain Rain
10:15 PM 51.8 °F - 48.2 °F 88% 29.34 in 3.0 mi North 4.6 mph - 0.05 in Rain Light Rain
10:31 PM 51.8 °F - 48.2 °F 88% 29.34 in 2.5 mi North 5.8 mph - 0.11 in Rain Heavy Rain
10:39 PM 50.0 °F - 48.2 °F 94% 29.34 in 2.5 mi NNE 4.6 mph - 0.15 in Rain Heavy Rain
10:53 PM 50.0 °F - 48.9 °F 96% 29.36 in 1.8 mi Variable 6.9 mph - 0.24 in Rain Heavy Rain
11:00 PM 50.0 °F - 48.2 °F 94% 29.34 in 2.0 mi SSE 5.8 mph - 0.03 in Rain Rain
11:09 PM 50.0 °F - 48.2 °F 94% 29.36 in 4.0 mi West 8.1 mph - 0.05 in Rain Rain
11:19 PM 50.0 °F - 48.2 °F 94% 29.37 in 2.0 mi WNW 10.4 mph 17.3 mph 0.11 in Rain Heavy Rain
11:23 PM 48.2 °F - 46.4 °F 93% 29.38 in 3.0 mi WNW 13.8 mph 19.6 mph 0.12 in Rain Light Rain
11:37 PM 48.2 °F - 44.6 °F 87% 29.41 in 7.0 mi WNW 12.7 mph - 0.14 in Rain Light Rain
11:53 PM 48.0 °F - 45.0 °F 89% 29.42 in 4.0 mi Variable 5.8 mph - 0.18 in Rain Rain